Location: Bruchhof
(51.8738°N, 9.9256°E)
Time: 08:20:15
(UTC+00:00)

ADEOS II - Pass Details

Date: 15 June 2024
Orbit: 796 x 797 km, 98.7° (Epoch: 22 July)

Event Time Altitude Azimuth Distance (km) Brightness Sun altitude
Rises 00:37:50 0° 24° (NNE) 3,315 7.3 -12.9°
Reaches altitude 10° 00:40:41 10° 39° (NE) 2,380 5.8 -12.8°
Maximum altitude 00:44:47 23° 91° (E) 1,654 3.9 -12.6°
Drops below altitude 10° 00:48:52 10° 142° (SE) 2,365 4.2 -12.4°
Enters shadow 00:50:32 - 152° (SSE) 2,897 4.6 -12.3°
